Find Starlink 36158

NORAD ID: 67080 Int'l Des: 2025-298 Owner: SPXS Country: US Constellation: starlink operational
LEOCIRCULAR

現在のビュー

3D地球を読み込み中...

About Starlink 36158

Starlink 36158 (NORAD 67080) is a starlink constellation satellite (v2 mini) launched Dec 14, 2025 by SPXS of US. It operates in LEO, CIRCULAR orbit with a mass of 575.00 kg.

Starlink 36158について

説明を読み込み中...

次回通過

Passes for default location (London). Set your location on the main map for personalized predictions.

高度履歴

Loading altitude history...

軌道要素

1 67080U 25298F 26195.01222110 .00002493 00000-0 21662-3 0 9997
2 67080 70.0012 55.7835 0002962 271.1443 88.9377 14.98335500 32147
Epoch: Jul 14, 2026 • Age: 9 hours

現在のステータス

高度 576.2 km
遠地点 / 近地点 N/A
速度 7.57 km/s
衛星直下点 -11.04°S, 169.3°E
打ち上げ日 Dec 14, 2025
運用期間 0.5 years
タイプ internet

技術仕様

分類 Payload
質量 575.00 kg
乾燥質量 530.00 kg
総質量 575.00 kg
長さ 0.30 m
直径 4.10 m
スパン 29.00 m
形状 Box + pan
製造者 SPXS
バスタイプ Starlink V2MO
フェーズステータス In Orbit
所有者/国 SPXS/US

Most Searched